Tracking 18852 objects as of 24-Nov-2017
HD Live streaming from Space Station
objects crossing your sky now

FENGYUN 1C DEB

Track FENGYUN 1C DEB now!
10-day predictions


NORAD ID: 31848
Int'l Code: 1999-025CJN
Perigee: 573.1 km
Apogee: 771.5 km
Inclination: 96.7 °
Period: 98.0 minutes
Semi major axis: 7043 km
RCS: 0.0179 m2 (small)
Launch date: May 10, 1999
Source: People's Republic of China (PRC)
Launch site: Taiyaun Space Center, China (TSC)

Note: This is SATELLITE DEBRIS
aabbcc
Your satellite tracking list
Your tracking list is empty




NASA's NSSDC Master Catalog

Two Line Element Set (TLE):
1 31848U 99025CJN 17327.84134724  .00001168  00000-0  17818-3 0  9996
2 31848  96.7014 335.0240 0140844 147.2022 213.8028 14.68719888559002
Source of the keplerian elements: AFSPC